Hourly Data Report for July 09, 2017

TORONTO CITY
ONTARIO

43°40'00.000" N
79°24'00.000" W
112.50 m
6158355
71508
XTO

Download Data

Hourly Data (July 2017)
Hourly Data Report for July 9, 2017
TIME
LST
Temp Definition
°C
Dew Point Definition
°C
Rel Hum Definition
%
Precip. Amount Definition
mm

Wind Dir Definition
10's deg

Wind Spd Definition
km/h
Visibility Definition
km
Stn Press Definition
kPa
Hmdx Definition


Wind Chill Definition


Weather Definition


00:00 18.0 7.1 49 0.0 LegendMM LegendMM   100.02     LegendNANA
01:00 17.8 7.5 51 0.0 LegendMM LegendMM   100.01     LegendNANA
02:00 17.2 7.5 53 0.0 LegendMM LegendMM   100.01     LegendNANA
03:00 16.9 8.0 56 0.0 LegendMM LegendMM   100.00     LegendNANA
04:00 17.2 8.0 55 0.0 LegendMM LegendMM   99.99     LegendNANA
05:00 16.0 9.2 64 0.0 LegendMM LegendMM   100.02     LegendNANA
06:00 17.7 9.8 59 0.0 LegendMM LegendMM   100.06     LegendNANA
07:00 18.7 10.4 59 0.0 LegendMM LegendMM   100.10     LegendNANA
08:00 18.9 13.1 69 0.0 LegendMM LegendMM   100.14     LegendNANA
09:00 19.4 13.7 70 0.0 LegendMM LegendMM   100.15     LegendNANA
10:00 20.6 14.1 66 0.0 LegendMM LegendMM   100.16     LegendNANA
11:00 22.7 13.7 57 0.0 LegendMM LegendMM   100.15 26   LegendNANA
12:00 23.8 12.9 50 0.0 LegendMM LegendMM   100.11 27   LegendNANA
13:00 26.2 12.1 41 0.0 LegendMM LegendMM   100.04 29   LegendNANA
14:00 25.9 10.4 38 0.0 LegendMM LegendMM   100.00 27   LegendNANA
15:00 26.1 9.5 35 0.0 LegendMM LegendMM   99.98 27   LegendNANA
16:00 26.1 9.4 35 0.0 LegendMM LegendMM   99.98 27   LegendNANA
17:00 25.3 10.7 40 0.0 LegendMM LegendMM   99.98 27   LegendNANA
18:00 24.9 11.6 43 0.0 LegendMM LegendMM   99.95 27   LegendNANA
19:00 24.1 12.0 47 0.0 LegendMM LegendMM   99.99 26   LegendNANA
20:00 23.2 11.7 48 0.0 LegendMM LegendMM   100.01 25   LegendNANA
21:00 23.1 11.1 47 0.0 LegendMM LegendMM   100.04 25   LegendNANA
22:00 22.0 12.0 53 0.0 LegendMM LegendMM   100.09     LegendNANA
23:00 19.2 16.0 82 0.0 LegendMM LegendMM   100.08     LegendNANA

Notes on Data Quality.

Legend

  • E = Estimated
  • M = Missing
  • NA = Not Available*
  • [empty] = Indicates an unobserved value
Date modified: